KF4PPJ Weather Reports


time (UTC)temp
C
wind
direction
speed
KPH
gust
KPH
rain 1hr
cm
rain 24hr
cm
rain mn
cm
humidity
%
barometer
mb
20260507105404 10 155 0.0 0.0 0.00 0.00 0.00 89 1024.1
20260507104901 10 155 0.0 0.0 0.00 0.00 0.00 89 1023.9
20260507104357 10 155 0.0 0.0 0.00 0.00 0.00 89 1023.9
20260507103853 10 155 0.0 0.0 0.00 0.00 0.00 90 1024.1
20260507103350 10 152 0.0 0.0 0.00 0.00 0.00 90 1024.1
20260507102846 10 153 0.0 0.0 0.00 0.00 0.00 90 1024.2
20260507102343 10 155 0.0 0.0 0.00 0.00 0.00 90 1024.0
20260507101839 10 155 0.0 0.0 0.00 0.00 0.00 90 1024.0
20260507101339 10 155 0.0 0.0 0.00 0.00 0.00 90 1024.3
20260507100837 10 155 0.0 1.6 0.00 0.00 0.00 90 1024.2
20260507100334 10 155 0.0 0.0 0.00 0.00 0.00 90 1024.2
20260507095832 10 156 0.0 0.0 0.00 0.00 0.00 90 1024.0
20260507095328 10 155 0.0 1.6 0.00 0.00 0.00 90 1024.1
20260507094826 10 155 1.6 1.6 0.00 0.00 0.00 90 1023.9
20260507094322 10 144 0.0 1.6 0.00 0.00 0.00 90 1024.0
20260507093819 10 155 0.0 0.0 0.00 0.00 0.00 90 1024.0
20260507093318 10 155 0.0 1.6 0.00 0.00 0.00 90 1024.0
20260507092815 10 156 0.0 1.6 0.00 0.00 0.00 90 1024.0
20260507092312 10 148 1.6 1.6 0.00 0.00 0.00 90 1024.0
20260507091808 10 150 0.0 1.6 0.00 0.00 0.00 89 1023.9
20260507091305 10 145 0.0 0.0 0.00 0.00 0.00 89 1024.1
20260507090805 10 146 0.0 1.6 0.00 0.00 0.00 89 1023.9
20260507090302 10 155 0.0 0.0 0.00 0.00 0.00 88 1024.0
20260507085759 10 150 0.0 0.0 0.00 0.00 0.00 87 1023.9
20260507085255 11 157 0.0 0.0 0.00 0.00 0.00 86 1023.9
20260507084753 11 240 3.2 3.2 0.00 0.00 0.00 86 1023.9
20260507084249 11 163 0.0 1.6 0.00 0.00 0.00 86 1023.9
20260507083747 11 156 1.6 4.8 0.00 0.00 0.00 85 1023.6
20260507083243 11 167 0.0 1.6 0.00 0.00 0.00 85 1023.9
20260507082739 11 204 3.2 3.2 0.00 0.00 0.00 85 1024.0
20260507082235 11 165 0.0 1.6 0.00 0.00 0.00 85 1024.1
20260507081732 11 152 1.6 1.6 0.00 0.00 0.00 85 1024.0
20260507081228 11 156 0.0 3.2 0.00 0.00 0.00 85 1023.9
20260507080725 11 189 1.6 3.2 0.00 0.00 0.00 85 1024.0
20260507080222 11 208 4.8 8.0 0.00 0.00 0.00 85 1023.9
20260507075717 11 159 0.0 3.2 0.00 0.00 0.00 85 1023.9
20260507075213 11 205 1.6 4.8 0.00 0.00 0.00 85 1024.0
20260507074709 11 176 1.6 1.6 0.00 0.00 0.00 86 1024.1
20260507074208 11 173 1.6 3.2 0.00 0.00 0.00 86 1023.8
20260507073704 11 179 1.6 3.2 0.00 0.00 0.00 86 1023.9
20260507073200 11 202 6.4 12.9 0.00 0.00 0.00 86 1023.9
20260507072658 11 164 4.8 8.0 0.00 0.00 0.00 86 1023.9
20260507072155 11 210 4.8 8.0 0.00 0.00 0.00 86 1024.0
20260507071653 11 181 1.6 4.8 0.00 0.00 0.00 87 1024.0
20260507071149 11 166 3.2 3.2 0.00 0.00 0.00 87 1023.9
20260507070646 11 151 3.2 4.8 0.00 0.00 0.00 87 1024.0
20260507070143 11 214 3.2 8.0 0.00 0.00 0.00 87 1023.8
20260507065639 11 199 4.8 9.7 0.00 0.00 0.00 87 1023.9
20260507065136 11 175 4.8 11.3 0.00 0.00 0.00 88 1024.2
20260507064634 11 226 9.7 12.9 0.00 0.00 0.00 89 1024.1
20260507064133 11 163 1.6 3.2 0.00 0.00 0.00 89 1023.9
20260507063630 11 180 1.6 3.2 0.00 0.00 0.00 90 1023.9
20260507063127 11 177 0.0 1.6 0.00 0.00 0.00 90 1024.0
20260507062623 11 180 1.6 3.2 0.00 0.00 0.00 90 1023.9
20260507062121 11 184 1.6 3.2 0.00 0.00 0.00 90 1024.1
20260507061619 11 197 1.6 4.8 0.00 0.00 0.00 90 1024.0
20260507061117 11 151 3.2 4.8 0.00 0.00 0.00 89 1024.1
20260507060614 11 191 1.6 8.0 0.00 0.00 0.00 89 1024.4
20260507060111 11 216 4.8 9.7 0.00 0.00 0.00 89 1024.1
20260507055606 11 202 4.8 9.7 0.00 0.00 0.00 89 1024.0
20260507055102 11 185 1.6 11.3 0.00 0.00 0.00 90 1024.1
20260507054558 11 159 1.6 3.2 0.00 0.00 0.00 89 1024.1
20260507054055 11 186 1.6 4.8 0.00 0.00 0.00 89 1024.0
20260507053553 11 160 0.0 8.0 0.00 0.00 0.00 89 1024.1
20260507053052 11 164 8.0 9.7 0.00 0.00 0.00 89 1024.1
20260507052549 11 228 4.8 8.0 0.00 0.00 0.00 89 1024.2
20260507052046 11 207 1.6 4.8 0.00 0.00 0.00 88 1024.1
20260507051543 11 177 14.5 16.1 0.00 0.00 0.00 88 1024.0
20260507051040 11 224 6.4 9.7 0.00 0.00 0.00 88 1023.9
20260507050536 11 166 3.2 11.3 0.00 0.00 0.00 87 1024.1
20260507050033 11 179 3.2 3.2 0.00 0.00 0.00 87 1024.2
20260507045530 11 163 3.2 9.7 0.00 0.00 0.00 86 1024.3
20260507045027 12 235 6.4 9.7 0.00 0.00 0.00 85 1024.2
20260507044524 12 166 0.0 3.2 0.00 0.00 0.00 85 1024.0
20260507044020 12 218 6.4 8.0 0.00 0.00 0.00 84 1024.0
20260507043516 12 184 6.4 11.3 0.00 0.00 0.00 84 1024.1
20260507043014 12 196 3.2 3.2 0.00 0.00 0.00 83 1024.1
20260507042509 12 215 4.8 4.8 0.00 0.00 0.00 82 1023.8
20260507042005 12 187 1.6 11.3 0.00 0.00 0.00 82 1023.8
20260507041502 12 190 3.2 12.9 0.00 0.00 0.00 82 1023.8
20260507040959 12 172 3.2 4.8 0.00 0.00 0.00 81 1023.8
20260507040455 12 167 0.0 1.6 0.00 0.00 0.00 82 1023.9
20260507035951 12 161 0.0 3.2 0.00 0.00 0.00 82 1023.7
20260507035448 12 193 3.2 4.8 0.00 0.00 0.00 82 1023.7
20260507034945 12 190 4.8 4.8 0.00 0.00 0.00 82 1023.4
20260507034441 12 171 4.8 4.8 0.00 0.00 0.00 82 1023.6
20260507033940 12 183 3.2 3.2 0.00 0.00 0.00 82 1023.6
20260507033437 12 228 3.2 4.8 0.00 0.00 0.00 82 1023.6
20260507032934 12 201 4.8 4.8 0.00 0.00 0.00 81 1023.6
20260507032431 12 168 3.2 3.2 0.00 0.00 0.00 82 1023.4
20260507031927 12 159 3.2 9.7 0.00 0.00 0.00 81 1023.7
20260507031426 12 148 4.8 4.8 0.00 0.00 0.00 81 1023.4
20260507030920 12 182 3.2 8.0 0.00 0.00 0.00 81 1023.5
20260507030418 12 181 3.2 4.8 0.00 0.00 0.00 81 1023.5
20260507025914 12 157 4.8 4.8 0.00 0.00 0.00 80 1023.3
20260507025412 12 148 3.2 8.0 0.00 0.00 0.00 81 1023.3
20260507024910 12 175 8.0 9.7 0.00 0.00 0.00 81 1023.3
20260507024407 13 163 3.2 8.0 0.00 0.00 0.00 80 1023.5
20260507023902 13 201 4.8 4.8 0.00 0.00 0.00 80 1023.3
20260507023359 13 161 4.8 4.8 0.00 0.00 0.00 80 1023.0
20260507022857 13 136 3.2 4.8 0.00 0.00 0.00 80 1023.1
20260507022353 13 173 3.2 11.3 0.00 0.00 0.00 79 1023.0
20260507021849 13 153 1.6 8.0 0.00 0.00 0.00 79 1023.2
20260507021345 13 201 4.8 9.7 0.00 0.00 0.00 78 1023.1
20260507020843 13 160 6.4 9.7 0.00 0.00 0.00 78 1023.0
20260507020339 13 196 4.8 4.8 0.00 0.00 0.00 77 1023.1
20260507015836 13 165 1.6 4.8 0.00 0.00 0.00 78 1023.4
20260507015334 13 191 4.8 8.0 0.00 0.00 0.00 77 1023.1
20260507014831 13 168 4.8 8.0 0.00 0.00 0.00 77 1023.1
20260507014327 13 189 4.8 9.7 0.00 0.00 0.00 77 1023.1
20260507013824 13 264 4.8 11.3 0.00 0.00 0.00 77 1023.1
20260507013321 13 201 4.8 11.3 0.00 0.00 0.00 79 1023.1
20260507012819 13 136 3.2 3.2 0.00 0.00 0.00 79 1023.2
20260507012314 13 158 6.4 8.0 0.00 0.00 0.00 79 1023.2
20260507011811 13 192 6.4 9.7 0.00 0.00 0.00 78 1023.2
20260507011308 13 148 4.8 11.3 0.00 0.00 0.00 78 1023.5
20260507010808 13 216 3.2 11.3 0.00 0.00 0.00 77 1023.1
20260507010304 13 222 4.8 8.0 0.00 0.00 0.00 77 1023.3
20260507005801 13 238 6.4 11.3 0.00 0.00 0.00 76 1023.2
20260507005258 13 216 4.8 4.8 0.00 0.00 0.00 76 1023.6
20260507004754 13 170 4.8 12.9 0.00 0.00 0.00 75 1023.5
20260507004252 13 213 4.8 11.3 0.00 0.00 0.00 75 1023.4
20260507003748 13 162 8.0 9.7 0.00 0.00 0.00 75 1023.4
20260507003243 13 190 8.0 11.3 0.00 0.00 0.00 75 1023.4
20260507002740 13 175 6.4 9.7 0.00 0.00 0.00 75 1023.4
20260507002236 13 195 8.0 14.5 0.00 0.00 0.00 76 1023.6
20260507001733 13 178 1.6 3.2 0.00 0.00 0.00 76 1023.3
20260507001230 13 189 4.8 14.5 0.00 0.00 0.00 76 1023.3
20260507000727 13 188 4.8 8.0 0.00 0.00 0.00 76 1023.5
20260507000222 13 203 9.7 17.7 0.00 0.00 0.00 76 1023.4
20260506235719 13 235 9.7 9.7 0.00 0.00 0.00 75 1023.3
20260506235214 13 189 3.2 8.0 0.00 0.00 0.00 76 1023.3
20260506234712 13 193 6.4 11.3 0.00 0.00 0.00 75 1023.4
20260506234209 13 222 4.8 8.0 0.00 0.00 0.00 74 1023.5
20260506233707 13 175 9.7 11.3 0.00 0.00 0.00 75 1023.3
20260506233203 13 190 6.4 12.9 0.00 0.00 0.00 75 1023.3
20260506232659 13 165 4.8 12.9 0.00 0.00 0.00 75 1023.2
20260506232154 14 172 4.8 8.0 0.00 0.00 0.00 75 1023.5
20260506231652 13 164 0.0 4.8 0.00 0.00 0.00 76 1023.3
20260506231150 13 158 3.2 9.7 0.00 0.00 0.00 75 1023.4
20260506230647 13 150 6.4 9.7 0.00 0.00 0.00 75 1023.5
20260506230144 13 196 8.0 11.3 0.00 0.00 0.00 75 1023.6
20260506225640 13 214 8.0 9.7 0.00 0.00 0.00 75 1023.6
20260506225137 14 150 4.8 14.5 0.00 0.00 0.00 74 1023.4
20260506224633 14 209 14.5 17.7 0.00 0.00 0.00 72 1023.4
20260506224130 13 198 3.2 8.0 0.00 0.00 0.00 74 1023.7
20260506223626 13 166 9.7 12.9 0.00 0.00 0.00 74 1023.4
20260506223122 13 227 6.4 12.9 0.00 0.00 0.00 75 1023.7
20260506222620 13 162 3.2 14.5 0.00 0.00 0.00 75 1023.6
20260506222116 13 207 11.3 17.7 0.00 0.00 0.00 76 1023.6
20260506221614 13 144 6.4 9.7 0.00 0.00 0.00 76 1023.7
20260506221112 13 223 6.4 11.3 0.00 0.00 0.00 75 1023.6
20260506220608 13 181 1.6 9.7 0.00 0.00 0.00 75 1023.7
20260506215600 13 180 11.3 14.5 0.00 0.00 0.00 75 1023.7
20260506215055 13 171 14.5 16.1 0.00 0.00 0.00 77 1023.9
20260506214553 13 154 6.4 14.5 0.00 0.00 0.00 76 1023.9
20260506214050 13 210 6.4 16.1 0.00 0.00 0.00 75 1023.7
20260506213548 13 181 8.0 11.3 0.00 0.00 0.00 75 1023.7
20260506213045 13 187 8.0 11.3 0.00 0.00 0.00 75 1023.7
20260506212541 13 160 1.6 9.7 0.00 0.00 0.00 76 1023.8
20260506212036 13 177 1.6 8.0 0.00 0.00 0.00 77 1023.9
20260506211532 13 187 4.8 9.7 0.00 0.00 0.00 75 1024.0
20260506211030 13 208 4.8 4.8 0.00 0.00 0.00 76 1023.8
20260506210526 13 149 4.8 11.3 0.00 0.00 0.00 75 1023.7
20260506210023 13 235 6.4 9.7 0.00 0.00 0.00 75 1023.7
20260506205520 13 201 8.0 11.3 0.00 0.00 0.00 75 1023.6
20260506205015 13 157 3.2 11.3 0.00 0.00 0.00 76 1023.6
20260506204514 13 202 6.4 12.9 0.00 0.00 0.00 75 1023.8
20260506204010 13 184 6.4 11.3 0.00 0.00 0.00 76 1023.7
20260506203508 13 192 6.4 9.7 0.00 0.00 0.00 76 1023.6
20260506202959 13 129 8.0 14.5 0.00 0.00 0.00 76 1024.0
20260506202456 13 262 6.4 11.3 0.00 0.00 0.00 76 1023.7
20260506201952 13 183 11.3 12.9 0.00 0.00 0.00 77 1023.7
20260506201450 13 193 4.8 11.3 0.00 0.00 0.00 77 1023.6
20260506200946 13 208 8.0 9.7 0.00 0.00 0.00 77 1023.5
20260506200442 13 193 4.8 9.7 0.00 0.00 0.00 77 1023.4
20260506195939 13 170 4.8 9.7 0.00 0.00 0.00 77 1023.4
20260506195436 12 178 1.6 9.7 0.00 0.00 0.00 77 1023.5
20260506194932 13 160 3.2 9.7 0.00 0.00 0.00 77 1023.5
20260506194430 13 165 8.0 11.3 0.00 0.00 0.00 77 1023.4
20260506193927 12 180 1.6 3.2 0.00 0.00 0.00 79 1023.4
20260506193424 12 208 6.4 8.0 0.00 0.00 0.00 78 1023.6
20260506192920 12 149 6.4 8.0 0.00 0.00 0.00 78 1023.3
20260506192417 12 193 3.2 3.2 0.00 0.00 0.00 78 1023.4
20260506191914 12 231 8.0 9.7 0.00 0.00 0.00 78 1023.2
20260506191410 12 222 4.8 8.0 0.00 0.00 0.00 78 1023.3
20260506190908 12 199 6.4 9.7 0.00 0.00 0.00 79 1023.5
20260506190404 12 224 3.2 4.8 0.00 0.00 0.00 80 1023.2
20260506185901 12 179 1.6 4.8 0.00 0.00 0.00 81 1023.3
20260506185358 12 142 4.8 9.7 0.00 0.00 0.00 81 1023.4
20260506184855 12 203 6.4 8.0 0.00 0.00 0.00 82 1023.5
20260506184352 12 223 8.0 9.7 0.00 0.00 0.00 83 1023.5
20260506183849 12 196 6.4 8.0 0.00 0.00 0.00 84 1023.3
20260506183344 12 187 3.2 8.0 0.00 0.00 0.00 84 1023.3
20260506182842 12 174 3.2 4.8 0.00 0.00 0.00 85 1023.4
20260506182339 12 212 0.0 8.0 0.00 0.00 0.00 85 1023.4
20260506181836 12 188 6.4 9.7 0.00 0.00 0.00 85 1023.4
20260506181334 11 153 6.4 9.7 0.00 0.00 0.00 86 1023.1
20260506180831 11 223 4.8 11.3 0.00 0.00 0.00 86 1023.1
20260506180327 11 239 6.4 8.0 0.00 0.00 0.00 87 1023.1
20260506175823 11 187 8.0 9.7 0.00 0.00 0.00 87 1023.1
20260506175320 11 171 4.8 9.7 0.00 0.00 0.00 87 1023.2
20260506174818 11 196 4.8 11.3 0.00 0.00 0.00 87 1023.2
20260506174315 12 215 3.2 4.8 0.00 0.00 0.00 88 1023.0
20260506173812 12 186 3.2 8.0 0.00 0.00 0.00 88 1023.2
20260506173309 12 135 3.2 8.0 0.00 0.00 0.00 88 1023.3
20260506172806 12 198 4.8 9.7 0.00 0.00 0.00 88 1023.3
20260506172306 12 193 3.2 3.2 0.00 0.00 0.00 89 1023.1
20260506171800 11 182 1.6 4.8 0.00 0.00 0.00 89 1023.2
20260506171257 11 222 4.8 8.0 0.00 0.00 0.00 90 1023.3
20260506170755 11 162 3.2 4.8 0.00 0.00 0.00 91 1023.1
20260506170251 11 192 3.2 4.8 0.00 0.00 0.00 91 1023.1
20260506165749 11 182 3.2 3.2 0.00 0.00 0.00 92 1023.2
20260506165247 11 176 4.8 4.8 0.00 0.00 0.00 92 1023.3
20260506164743 11 213 4.8 8.0 0.00 0.00 0.00 93 1023.3
20260506164240 11 186 4.8 9.7 0.00 0.00 0.00 93 1023.1
20260506163737 11 203 4.8 8.0 0.00 0.00 0.00 93 1023.0
20260506163232 11 226 3.2 4.8 0.00 0.00 0.00 94 1022.8
20260506162728 11 212 8.0 9.7 0.00 0.00 0.00 94 1022.8
20260506162226 11 184 1.6 3.2 0.00 0.00 0.00 95 1022.6
20260506161723 11 141 4.8 4.8 0.00 0.00 0.00 95 1022.6
20260506161220 11 201 3.2 4.8 0.00 0.00 0.00 95 1022.5
20260506160718 11 167 3.2 4.8 0.00 0.00 0.00 95 1022.5
20260506160214 11 165 6.4 8.0 0.00 0.00 0.00 95 1022.6
20260506155713 11 166 1.6 8.0 0.00 0.00 0.00 95 1022.8
20260506155210 11 207 4.8 4.8 0.00 0.00 0.00 95 1022.7
20260506153311 11 181 4.8 4.8 0.00 0.00 0.00 94 1022.9
20260506152808 11 166 3.2 4.8 0.00 0.00 0.00 94 1022.8
20260506152306 11 177 3.2 8.0 0.00 0.00 0.00 94 1022.8
20260506151804 11 179 1.6 3.2 0.00 0.00 0.00 94 1022.5
20260506151300 11 180 1.6 1.6 0.00 0.00 0.00 94 1022.3
20260506150757 11 168 3.2 3.2 0.00 0.00 0.00 94 1022.4
20260506150302 11 160 4.8 4.8 0.00 0.00 0.00 94 1022.7
20260506145751 11 218 4.8 4.8 0.00 0.00 0.00 94 1022.6
20260506145248 11 178 4.8 8.0 0.00 0.00 0.00 94 1022.8
20260506144745 11 138 3.2 3.2 0.00 0.00 0.00 94 1022.9
20260506144242 11 234 6.4 9.7 0.00 0.00 0.00 94 1022.9
20260506143740 11 216 4.8 8.0 0.00 0.00 0.00 93 1022.5
20260506143237 11 180 1.6 8.0 0.00 0.00 0.00 93 1022.6
20260506142735 11 230 6.4 8.0 0.00 0.00 0.00 93 1022.5
20260506142233 11 190 0.0 1.6 0.00 0.00 0.00 93 1022.4
20260506141731 11 155 0.0 3.2 0.00 0.00 0.00 93 1022.2
20260506141229 11 214 6.4 8.0 0.00 0.00 0.00 92 1022.4
20260506140726 11 167 3.2 8.0 0.00 0.00 0.00 92 1022.3
20260506140223 11 181 4.8 4.8 0.00 0.00 0.00 92 1022.4
20260506135719 11 184 4.8 8.0 0.00 0.00 0.00 92 1022.8
20260506135216 11 220 3.2 4.8 0.00 0.00 0.00 91 1022.6
20260506134713 11 151 0.0 1.6 0.00 0.00 0.00 91 1022.3
20260506134209 11 197 3.2 4.8 0.00 0.00 0.00 91 1022.4
20260506133707 11 222 4.8 8.0 0.00 0.00 0.00 91 1022.3
20260506133203 11 171 1.6 4.8 0.00 0.00 0.00 91 1022.2
20260506132700 11 232 4.8 11.3 0.00 0.00 0.00 90 1022.2
20260506132157 11 183 1.6 9.7 0.00 0.00 0.00 90 1022.3
20260506131655 11 242 8.0 9.7 0.00 0.00 0.00 90 1021.9
20260506131151 11 189 3.2 4.8 0.00 0.00 0.00 90 1021.8
20260506130647 11 184 6.4 8.0 0.00 0.00 0.00 90 1021.8
20260506130145 11 196 4.8 4.8 0.00 0.00 0.00 90 1022.0
20260506125643 11 173 0.0 1.6 0.00 0.00 0.00 90 1021.9
20260506125141 11 156 3.2 8.0 0.00 0.00 0.00 90 1021.8
20260506124638 11 150 3.2 3.2 0.00 0.00 0.00 90 1021.7
20260506124136 11 203 4.8 4.8 0.00 0.00 0.00 90 1021.8
20260506123633 11 182 1.6 3.2 0.00 0.00 0.00 90 1021.7
20260506123132 11 168 4.8 4.8 0.00 0.00 0.00 90 1021.5
20260506122628 11 220 1.6 4.8 0.00 0.00 0.00 90 1022.0
20260506122126 11 167 1.6 4.8 0.00 0.00 0.00 90 1021.6
20260506121623 11 208 4.8 8.0 0.00 0.00 0.00 90 1021.5
20260506121120 11 148 6.4 8.0 0.00 0.00 0.00 89 1021.5
20260506120618 11 176 1.6 3.2 0.00 0.00 0.00 89 1021.9
20260506120115 11 200 4.8 9.7 0.00 0.00 0.00 89 1021.6
20260506115613 11 190 4.8 4.8 0.00 0.00 0.00 89 1021.5
20260506115111 11 218 3.2 3.2 0.00 0.00 0.00 89 1021.5
20260506114608 11 179 1.6 4.8 0.00 0.00 0.00 89 1021.5
20260506114106 11 157 1.6 3.2 0.00 0.00 0.00 89 1021.4
20260506113604 11 194 4.8 9.7 0.00 0.00 0.00 89 1021.5
20260506113101 11 210 1.6 4.8 0.00 0.00 0.00 88 1021.3
20260506112557 11 183 1.6 4.8 0.00 0.00 0.00 88 1021.4
20260506112055 11 164 3.2 3.2 0.00 0.00 0.00 88 1021.3
20260506111553 11 206 6.4 8.0 0.00 0.00 0.00 88 1021.5
20260506111050 11 173 4.8 4.8 0.00 0.00 0.00 88 1021.4
20260506110547 11 193 3.2 3.2 0.00 0.00 0.00 88 1021.3
20260506110044 11 198 1.6 4.8 0.00 0.00 0.00 88 1021.3